Location: Unspecified
(0.0000°N, 0.0000°E)
Time: 11:19:51
(UTC+00:00)

Hubble Space Telescope - Pass Details

Date: 16 March 2019
Orbit: 537 x 540 km, 28.5° (Epoch: 24 March)

Event Time Altitude Azimuth Distance (km) Brightness Sun altitude
Rises 19:52:08 0° 241° (WSW) 2,678 5.3 -25.9°
Reaches altitude 10° 19:54:24 10° 242° (WSW) 1,787 4.2 -26.4°
Enters shadow 19:57:14 42° 247° (WSW) 765 1.9 -27.1°
